Location: Brunembert
(50.7122°N, 1.8935°E)
Time: 20:46:29
(UTC+00:00)

X-37B - Pass Details

Date: 27 September 2021
Orbit: 385 x 389 km, 45.0° (Epoch: 13 October)

Event Time Altitude Azimuth Distance (km) Brightness Sun altitude
Exits shadow 04:54:07 12° 241° (WSW) 1,308 2.7 -9.1°
Maximum altitude 04:56:38 29° 181° (S) 744 1.9 -8.7°
Drops below altitude 10° 04:59:27 10° 119° (ESE) 1,415 4.3 -8.3°
Sets 05:01:40 0° 108° (ESE) 2,270 5.8 -7.9°
